[Iaude] MPEC O98: 2024 OS [a=1.54,e=0.36,i=4.0,H=25.5]
    mpec at cfa.harvard.edu 
    mpec at cfa.harvard.edu
       
    Tue Jul 30 08:00:45 EDT 2024
    
    
  
M.P.E.C. 2024-O98                                 Issued 2024 July 30, 11:56 UT
     The Minor Planet Electronic Circulars contain information on unusual
         minor planets, routine data on comets and natural satellites,
         and occasional editorial announcements.  They are published
    on behalf of Division F of the International Astronomical Union by the
          Minor Planet Center, Smithsonian Astrophysical Observatory,
                          Cambridge, MA 02138, U.S.A.
			  
             Prepared using the Tamkin Foundation Computer Network
                              MPC at CFA.HARVARD.EDU
            URL https://www.minorplanetcenter.net/    ISSN 1523-6714
                                    2024 OS                                     
Observations:
     K24O00S* C2024 07 28.43874720 49 55.080-04 08 38.67         21.10wXEO098F52
     K24O00S  C2024 07 28.44865720 49 56.570-04 07 39.19         21.08wXEO098F52
     K24O00S  C2024 07 28.45857120 49 58.063-04 06 39.61         21.03wXEO098F52
     K24O00S  C2024 07 28.46847520 49 59.551-04 05 40.11         20.81wXEO098F52
     K24O00S  C2024 07 28.51561820 50 06.716-04 00 55.65         21.68GVEO098F52
     K24O00S  C2024 07 28.51644620 50 06.849-04 00 50.28         21.10GVEO098F52
     K24O00S KC2024 07 29.04125920 51 51.931-03 07 41.70         20.8 GVEO098J95
     K24O00S KC2024 07 29.05172820 51 53.731-03 06 34.99         20.2 GVEO098J95
     K24O00S |C2024 07 29.06709020 52 02.710-03 02 40.70         21.2 GVEO098807
     K24O00S |C2024 07 29.07370020 52 03.850-03 01 59.20         20.8 GVEO098807
     K24O00S |C2024 07 29.08045020 52 05.020-03 01 16.20         21.0 GVEO098807
     K24O00S KC2024 07 29.21561520 52 29.25 -02 49 01.9          21.0 GVEO098H21
     K24O00S KC2024 07 29.21845820 52 29.73 -02 48 44.0          21.0 GVEO098H21
     K24O00S KC2024 07 29.22414520 52 30.68 -02 48 07.8          21.1 GVEO098H21
     K24O00S KC2024 07 29.22699020 52 31.16 -02 47 49.5          20.9 GVEO098H21
     K24O00S !C2024 07 30.26803 20 56 13.30 -00 52 11.7          20.2 GVEO098673
     K24O00S !C2024 07 30.27231 20 56 14.09 -00 51 41.9                VEO098673
     K24O00S KC2024 07 30.28342720 56 13.01 -00 50 32.7          20.7 GVEO098H21
     K24O00S KC2024 07 30.28911620 56 14.06 -00 49 53.6          20.8 GVEO098H21
     K24O00S KC2024 07 30.29271920 56 14.72 -00 49 28.5          20.8 GVEO098H21
Observer details:
673 Table Mountain Observatory, Wrightwood.  Observer J. Pittichova.  1.0-m
    f/15 reflector + CCD.
807 Cerro Tololo Observatory, La Serena.  Observers T. Linder, R. Holmes.
    0.61-m f/6.8 Ritchey-Chretien + CCD.
F52 Pan-STARRS 2, Haleakala.  Observers J. Herman, T. Lowe, P. Minguez, A.
    Schultz, I. Smith.  Measurers K. Chambers, T. de Boer, J. Fairlamb, H.
    Gao, M. Huber, C.-C. Lin, E. Magnier, Y. Ramanjooloo, R. Wainscoat, R.
    Weryk.  1.8-m Ritchey-Chretien + CCD.
H21 Astronomical Research Observatory, Westfield.  Observer R. Holmes.
    Measurers T. Linder, R. Holmes.  0.81-m f/4.0 astrograph + CCD.
J95 Great Shefford.  Observer P. Birtwhistle.  0.41-m f/6.3 Schmidt-Cassegrain
    + CCD.
Orbital elements:
2024 OS                                                  Earth MOID = 0.0439 AU
Epoch 2024 Oct. 17.0 TT = JDT 2460600.5                 Veres                   
M  17.74786              (2000.0)            P               Q                  
n   0.51373252     Peri.   64.43813     +0.99553980     +0.06907647             
a   1.5439907      Node   291.54586     -0.08977274     +0.90302457             
e   0.3562835      Incl.    3.96139     +0.02900624     +0.42399890             
P   1.92           H   25.56          G   0.15           U   8                  
Residuals in seconds of arc
240728 F52  0.2-  0.0     240729 J95  0.1+  0.5+    240729 H21  0.1-  0.0
240728 F52  0.1-  0.0     240729 807  0.7+  0.4-    240730 673  0.1-  0.1+
240728 F52  0.0   0.1+    240729 807  0.3+  0.4-    240730 673  0.1-  0.3+
240728 F52  0.0   0.0     240729 807  0.1+  0.1+    240730 H21  0.0   0.3+
240728 F52  0.0   0.0     240729 H21  0.1+  0.2+    240730 H21  0.0   0.2-
240728 F52  0.1+  0.3+    240729 H21  0.1+  0.1-    240730 H21  0.1-  0.1-
240729 J95  0.1+  0.3-    240729 H21  0.1-  0.1-
Ephemeris:
2024 OS                  a,e,i = 1.54, 0.36, 4                   q = 0.9939
Date    TT    R. A. (2000) Decl.     Delta      r    Elong.  Phase     V
2024 06 30    20 04 23.4 -24 12 04   0.2229  1.2283   159.9    16.6    23.6
...
2024 07 15    20 21 32.8 -18 09 00   0.1406  1.1549   169.2     9.5    22.2
...
2024 07 23    20 35 32.9 -11 30 33   0.1046  1.1189   169.5     9.6    21.5
...
2024 07 29    20 51 44.1 -03 10 38   0.08156 1.0939   163.8    15.0    21.1
2024 07 30    20 55 11.8 -01 21 52   0.07813 1.0899   162.3    16.4    21.1
2024 07 31    20 58 56.7 +00 35 56   0.07484 1.0860   160.6    18.1    21.0
...
2024 08 06    21 29 52.1 +16 05 50   0.05872 1.0638   146.6    31.7    20.9
...
2024 08 14    22 54 44.1 +44 39 59   0.05133 1.0383   118.2    59.3    21.3
...
2024 08 29    04 09 59.1 +61 47 09   0.08012 1.0049    84.1    91.3    23.3
M. P. C. Staff               (C) Copyright 2024 MPC           M.P.E.C. 2024-O98
    
    
More information about the Iaude
mailing list